028  
ASUS46 KOTX 070525  
RWROTX  
 
EASTERN WASHINGTON/NORTHERN IDAHO ROUNDUP  
NATIONAL WEATHER SERVICE, SPOKANE WA  
1000 PM PDT TUE JUN 06 2023  
 
NOTE: "FAIR" INDICATED FEW OR NO CLOUDS BELOW 12,000 FEET WITH NO  
SIGNIFICANT WEATHER AND/OR S TO VISIBILITY
.  
   
..NORTHEAST WASHINGTON AND NORTHERN IDAHO PANHANDLE
 
 
 
CITY SKY/WX TMP DP RH WIND PRES REMARKS
 
SPOKANE INTL MOCLDY 75 34 22 NW6 29.82R  
COEUR D ALENE PTCLDY 69 44 40 S3 29.82R  
DEER PARK PTCLDY 59 42 53 NW3 29.81S  
SANDPOINT PTCLDY 59 43 55 CALM 29.81S  
BONNERS FERRY FAIR 63 46 55 CALM 29.82R  
   
..SOUTHEAST WASHINGTON AND SOUTHERN IDAHO PANHANDLE
 
 
 
CITY SKY/WX TMP DP RH WIND PRES REMARKS
 
WALLA WALLA MOCLDY 73 50 44 SE5 29.74R  
PULLMAN/MOSCOW MOCLDY 64 44 48 CALM 29.83R  
LEWISTON MOCLDY 77 43 29 SE7 29.75R  
LOWELL N/A 64 60 87 CALM 29.77R  
GRANGEVILLE FAIR 63 52 67 S5 29.86S  
   
..COLUMBIA BASIN
 
 
 
CITY SKY/WX TMP DP RH WIND PRES REMARKS
 
EPHRATA PTCLDY 76 30 18 NW5 29.77R  
MOSES LAKE PTCLDY 75 39 27 N3 29.78R  
PASCO PTCLDY 68 48 48 N7 29.72R  
RICHLAND PTCLDY 73 32 21 NW5 29.73R  
HERMISTON PTCLDY 70 48 45 CALM 29.73R  
PENDLETON MOCLDY 76 39 26 S5 29.77R  
   
..EAST SLOPES CASCADES
 
 
 
CITY SKY/WX TMP DP RH WIND PRES REMARKS
 
THE DALLES PTCLDY 74 40 29 SW3 29.71R  
YAKIMA CLEAR 69 41 36 W8 29.77R  
ELLENSBURG CLEAR 64 44 48 NE6 29.81R  
STAMPEDE PASS CLEAR 62 41 46 SW3 29.94R  
WENATCHEE CLEAR 77 38 24 W5 29.77R  
WINTHROP MOCLDY 61 43 52 NW5 29.84  
OMAK CLEAR 70 36 28 NW13 29.80S  
SUNNYSIDE PTCLDY 68 40 36 CALM 29.75S  
   
..SOUTHERN BRITISH COLUMBIA
 
 
 
CITY SKY/WX TMP DP RH WIND PRES REMARKS
 
PENTICTON CLEAR 66 32 28 N10 29.83R  
CRANBROOK PTCLDY 70 41 35 W6 29.86R  
OSOYOOS N/A 66 39 37 NE1 N/A  
CRESTON N/A 72 39 30 NE2 N/A  
   
..WESTERN MONTANA
 
 
 
CITY SKY/WX TMP DP RH WIND PRES REMARKS
 
KALISPELL PTCLDY 60 50 69 SW5 29.85R  
MISSOULA PTCLDY 74 56 53 E8 29.87R  
   
..NEIGHBORING CITIES
 
 
 
CITY SKY/WX TMP DP RH WIND PRES REMARKS
 
SEATTLE CLEAR 70 40 33 N8 29.79R  
PORTLAND PTCLDY 79 47 32 W10 29.71R  
BOISE LGT RAIN 65 57 75 SE13 29.85F  
GREAT FALLS MOCLDY 55 52 89 S6 29.99S  
CALGARY CLEAR 63 39 42 S13 29.96S  
 
CLICK HERE TO GO TO PREVIOUS BULLETINS.

The Nexlab WA Page
The Nexlab ID Page Main Text Page